TimeCDT,TemperatureF,Dew PointF,Humidity,Sea Level PressureIn,VisibilityMPH,Wind Direction,Wind SpeedMPH,Gust SpeedMPH,PrecipitationIn,Events,Conditions,WindDirDegrees,DateUTC
12:15 AM,77.0,55.4,47,30.02,10.0,SSE,6.9,-,N/A,,Unknown,160,2013-08-30 05:15:00
12:35 AM,75.2,55.4,50,30.01,10.0,SSE,5.8,-,N/A,,Unknown,160,2013-08-30 05:35:00
12:55 AM,75.2,55.4,50,30.02,10.0,SSE,5.8,-,N/A,,Unknown,160,2013-08-30 05:55:00
1:15 AM,75.2,55.4,50,30.02,10.0,SSE,5.8,-,N/A,,Unknown,160,2013-08-30 06:15:00
1:35 AM,73.4,55.4,53,30.02,10.0,SSE,8.1,-,N/A,,Unknown,160,2013-08-30 06:35:00
1:55 AM,75.2,55.4,50,30.02,10.0,SSE,8.1,-,N/A,,Unknown,160,2013-08-30 06:55:00
2:15 AM,73.4,55.4,53,30.01,10.0,SSE,8.1,-,N/A,,Unknown,150,2013-08-30 07:15:00
2:35 AM,73.4,55.4,53,30.01,10.0,SSE,6.9,-,N/A,,Unknown,160,2013-08-30 07:35:00
2:55 AM,73.4,55.4,53,30.01,10.0,SSE,6.9,-,N/A,,Unknown,160,2013-08-30 07:55:00
3:15 AM,71.6,55.4,57,30.01,10.0,Calm,Calm,-,N/A,,Unknown,0,2013-08-30 08:15:00
3:35 AM,73.4,55.4,53,30.01,10.0,Calm,Calm,-,N/A,,Unknown,0,2013-08-30 08:35:00
3:55 AM,71.6,55.4,57,30.01,10.0,SSE,4.6,-,N/A,,Unknown,160,2013-08-30 08:55:00
4:15 AM,71.6,55.4,57,30.01,10.0,SSE,5.8,-,N/A,,Unknown,150,2013-08-30 09:15:00
4:35 AM,71.6,55.4,57,30.01,10.0,SSE,6.9,-,N/A,,Unknown,160,2013-08-30 09:35:00
4:55 AM,71.6,55.4,57,30.01,10.0,SSE,4.6,-,N/A,,Unknown,160,2013-08-30 09:55:00
5:15 AM,71.6,55.4,57,30.01,10.0,SSE,5.8,-,N/A,,Unknown,160,2013-08-30 10:15:00
5:35 AM,71.6,55.4,57,30.01,10.0,SSE,5.8,-,N/A,,Unknown,150,2013-08-30 10:35:00
5:55 AM,69.8,55.4,60,30.01,10.0,SSE,5.8,-,N/A,,Unknown,160,2013-08-30 10:55:00
6:15 AM,71.6,55.4,57,30.01,10.0,SSE,4.6,-,N/A,,Unknown,160,2013-08-30 11:15:00
6:35 AM,71.6,55.4,57,30.02,10.0,SSE,4.6,-,N/A,,Unknown,160,2013-08-30 11:35:00
6:55 AM,71.6,55.4,57,30.02,10.0,SSE,5.8,-,N/A,,Unknown,160,2013-08-30 11:55:00
7:15 AM,69.8,55.4,60,30.03,10.0,SSE,4.6,-,N/A,,Unknown,150,2013-08-30 12:15:00
7:35 AM,71.6,55.4,57,30.03,10.0,SSE,3.5,-,N/A,,Unknown,160,2013-08-30 12:35:00
7:55 AM,71.6,57.2,60,30.03,10.0,SE,3.5,-,N/A,,Unknown,140,2013-08-30 12:55:00
8:15 AM,73.4,57.2,57,30.03,10.0,SSE,4.6,-,N/A,,Unknown,150,2013-08-30 13:15:00
9:15 AM,78.8,55.4,44,30.03,10.0,South,5.8,-,N/A,,Unknown,170,2013-08-30 14:15:00
9:35 AM,80.6,57.2,45,30.03,10.0,South,6.9,-,N/A,,Unknown,170,2013-08-30 14:35:00
9:55 AM,82.4,55.4,39,30.03,10.0,South,5.8,-,N/A,,Unknown,190,2013-08-30 14:55:00
10:15 AM,86.0,57.2,37,30.03,10.0,SSW,8.1,-,N/A,,Unknown,210,2013-08-30 15:15:00
10:35 AM,89.6,53.6,29,30.03,10.0,WSW,9.2,-,N/A,,Unknown,240,2013-08-30 15:35:00
10:55 AM,89.6,53.6,29,30.03,10.0,SW,10.4,-,N/A,,Unknown,230,2013-08-30 15:55:00
11:15 AM,91.4,53.6,28,30.03,10.0,WSW,6.9,-,N/A,,Unknown,250,2013-08-30 16:15:00
11:35 AM,91.4,53.6,28,30.02,10.0,SW,8.1,-,N/A,,Unknown,230,2013-08-30 16:35:00
11:55 AM,95.0,51.8,23,30.01,10.0,SW,9.2,-,N/A,,Unknown,230,2013-08-30 16:55:00
12:15 PM,95.0,51.8,23,30.01,10.0,WSW,10.4,13.8,N/A,,Unknown,240,2013-08-30 17:15:00
12:35 PM,96.8,51.8,22,30.01,10.0,SW,10.4,18.4,N/A,,Unknown,230,2013-08-30 17:35:00
12:55 PM,96.8,51.8,22,30.00,10.0,SSW,10.4,17.3,N/A,,Unknown,200,2013-08-30 17:55:00
1:15 PM,96.8,50.0,20,30.00,10.0,SW,12.7,-,N/A,,Unknown,230,2013-08-30 18:15:00
1:35 PM,96.8,50.0,20,29.99,10.0,WSW,10.4,-,N/A,,Unknown,240,2013-08-30 18:35:00
1:55 PM,98.6,50.0,19,29.98,10.0,South,10.4,17.3,N/A,,Unknown,180,2013-08-30 18:55:00
2:15 PM,98.6,50.0,19,29.97,10.0,SSW,15.0,19.6,N/A,,Unknown,210,2013-08-30 19:15:00
2:35 PM,98.6,46.4,17,29.96,10.0,South,8.1,16.1,N/A,,Unknown,190,2013-08-30 19:35:00
2:55 PM,98.6,48.2,18,29.96,10.0,South,12.7,-,N/A,,Unknown,190,2013-08-30 19:55:00
3:15 PM,98.6,44.6,16,29.95,10.0,SSW,9.2,-,N/A,,Unknown,200,2013-08-30 20:15:00
3:35 PM,100.4,42.8,14,29.94,10.0,SSE,6.9,17.3,N/A,,Unknown,150,2013-08-30 20:35:00
3:55 PM,100.4,44.6,15,29.93,10.0,SSW,6.9,-,N/A,,Unknown,200,2013-08-30 20:55:00
4:15 PM,100.4,46.4,16,29.93,10.0,West,5.8,-,N/A,,Unknown,260,2013-08-30 21:15:00
4:35 PM,98.6,44.6,16,29.92,10.0,SW,9.2,17.3,N/A,,Unknown,230,2013-08-30 21:35:00
4:55 PM,100.4,44.6,15,29.91,10.0,WSW,5.8,-,N/A,,Unknown,240,2013-08-30 21:55:00
5:15 PM,100.4,44.6,15,29.91,10.0,West,9.2,-,N/A,,Unknown,270,2013-08-30 22:15:00
5:35 PM,100.4,44.6,15,29.91,10.0,WSW,8.1,-,N/A,,Unknown,240,2013-08-30 22:35:00
5:55 PM,98.6,44.6,16,29.90,10.0,SW,6.9,18.4,N/A,,Unknown,230,2013-08-30 22:55:00
6:15 PM,100.4,42.8,14,29.90,10.0,Calm,Calm,-,N/A,,Unknown,0,2013-08-30 23:15:00
6:35 PM,98.6,44.6,16,29.90,10.0,SW,6.9,-,N/A,,Unknown,230,2013-08-30 23:35:00
6:55 PM,98.6,44.6,16,29.90,10.0,WSW,8.1,-,N/A,,Unknown,240,2013-08-30 23:55:00
7:15 PM,98.6,44.6,16,29.89,10.0,SSW,5.8,-,N/A,,Unknown,200,2013-08-31 00:15:00
7:35 PM,96.8,48.2,19,29.89,10.0,SSW,5.8,-,N/A,,Unknown,200,2013-08-31 00:35:00
7:55 PM,95.0,46.4,19,29.89,10.0,South,8.1,-,N/A,,Unknown,180,2013-08-31 00:55:00
8:15 PM,93.2,46.4,20,29.89,10.0,South,10.4,-,N/A,,Unknown,170,2013-08-31 01:15:00
8:35 PM,91.4,48.2,23,29.89,10.0,SSE,9.2,-,N/A,,Unknown,160,2013-08-31 01:35:00
8:55 PM,89.6,48.2,24,29.90,10.0,SSE,9.2,-,N/A,,Unknown,160,2013-08-31 01:55:00
9:15 PM,87.8,50.0,27,29.90,10.0,SSE,9.2,-,N/A,,Unknown,160,2013-08-31 02:15:00
9:35 PM,87.8,50.0,27,29.90,10.0,SSE,9.2,-,N/A,,Unknown,160,2013-08-31 02:35:00
9:55 PM,86.0,50.0,29,29.91,10.0,SSE,9.2,-,N/A,,Unknown,160,2013-08-31 02:55:00
10:15 PM,86.0,50.0,29,29.91,10.0,SSE,9.2,-,N/A,,Unknown,160,2013-08-31 03:15:00
10:35 PM,82.4,51.8,35,29.91,10.0,SSE,8.1,-,N/A,,Unknown,150,2013-08-31 03:35:00
10:55 PM,82.4,51.8,35,29.91,10.0,SSE,9.2,-,N/A,,Unknown,150,2013-08-31 03:55:00
11:15 PM,82.4,51.8,35,29.91,10.0,SSE,8.1,-,N/A,,Unknown,150,2013-08-31 04:15:00
11:35 PM,82.4,51.8,35,29.91,10.0,SSE,9.2,-,N/A,,Unknown,150,2013-08-31 04:35:00
11:55 PM,80.6,51.8,37,29.91,10.0,SSE,8.1,-,N/A,,Unknown,150,2013-08-31 04:55:00